<?xml version="1.0" encoding="UTF-8" standalone="no" ?>
<gpx xmlns="http://www.topografix.com/GPX/1/1" xmlns:xsi="http://www.w3.org/2001/XMLSchema-instance" xsi:schemaLocation="http://www.topografix.com/GPX/1/1 http://www.topografix.com/GPX/1/1/gpx.xsd" version="1.1" creator="VisuGPX - https://www.visugpx.com">
  <metadata>
    <name>villenavotte</name>
  </metadata>
  <trk>
    <name><![CDATA[villenavotte]]></name>
    <trkseg>
      <trkpt lat="48.24903" lon="3.23798">
        <ele>85.7</ele>
        <time>2020-10-14T13:14:49Z</time>
      </trkpt>
      <trkpt lat="48.24922" lon="3.24056">
        <ele>83.3</ele>
        <time>2020-10-14T13:14:49Z</time>
      </trkpt>
      <trkpt lat="48.25014" lon="3.2407">
        <ele>66.5</ele>
        <time>2020-10-14T13:14:49Z</time>
      </trkpt>
      <trkpt lat="48.25075" lon="3.24038">
        <ele>63.3</ele>
        <time>2020-10-14T13:14:49Z</time>
      </trkpt>
      <trkpt lat="48.25093" lon="3.2412">
        <ele>62.8</ele>
        <time>2020-10-14T13:14:49Z</time>
      </trkpt>
      <trkpt lat="48.25295" lon="3.23992">
        <ele>63</ele>
        <time>2020-10-14T13:14:49Z</time>
      </trkpt>
      <trkpt lat="48.25464" lon="3.23978">
        <ele>62.3</ele>
        <time>2020-10-14T13:14:49Z</time>
      </trkpt>
      <trkpt lat="48.2558" lon="3.23881">
        <ele>62</ele>
        <time>2020-10-14T13:14:49Z</time>
      </trkpt>
      <trkpt lat="48.25687" lon="3.23734">
        <ele>62.2</ele>
        <time>2020-10-14T13:14:49Z</time>
      </trkpt>
      <trkpt lat="48.25846" lon="3.23601">
        <ele>62.3</ele>
        <time>2020-10-14T13:14:49Z</time>
      </trkpt>
      <trkpt lat="48.25886" lon="3.23573">
        <ele>62</ele>
        <time>2020-10-14T13:14:49Z</time>
      </trkpt>
      <trkpt lat="48.25886" lon="3.23573">
        <ele>62</ele>
        <time>2020-10-14T13:14:49Z</time>
      </trkpt>
      <trkpt lat="48.25916" lon="3.23587">
        <ele>60.9</ele>
        <time>2020-10-14T13:14:49Z</time>
      </trkpt>
      <trkpt lat="48.26063" lon="3.23458">
        <ele>61.4</ele>
        <time>2020-10-14T13:14:49Z</time>
      </trkpt>
      <trkpt lat="48.26253" lon="3.23389">
        <ele>61</ele>
        <time>2020-10-14T13:14:49Z</time>
      </trkpt>
      <trkpt lat="48.26244" lon="3.23233">
        <ele>64.3</ele>
        <time>2020-10-14T13:14:49Z</time>
      </trkpt>
      <trkpt lat="48.26198" lon="3.23035">
        <ele>66.6</ele>
        <time>2020-10-14T13:14:49Z</time>
      </trkpt>
      <trkpt lat="48.26348" lon="3.22944">
        <ele>80.1</ele>
        <time>2020-10-14T13:14:49Z</time>
      </trkpt>
      <trkpt lat="48.26584" lon="3.22663">
        <ele>89.4</ele>
        <time>2020-10-14T13:14:49Z</time>
      </trkpt>
      <trkpt lat="48.26746" lon="3.22544">
        <ele>98.3</ele>
        <time>2020-10-14T13:14:49Z</time>
      </trkpt>
      <trkpt lat="48.26736" lon="3.22305">
        <ele>104.5</ele>
        <time>2020-10-14T13:14:49Z</time>
      </trkpt>
      <trkpt lat="48.2674" lon="3.22185">
        <ele>105.5</ele>
        <time>2020-10-14T13:14:49Z</time>
      </trkpt>
      <trkpt lat="48.26758" lon="3.22093">
        <ele>105.7</ele>
        <time>2020-10-14T13:14:49Z</time>
      </trkpt>
      <trkpt lat="48.26822" lon="3.21988">
        <ele>103</ele>
        <time>2020-10-14T13:14:49Z</time>
      </trkpt>
      <trkpt lat="48.26868" lon="3.21863">
        <ele>101</ele>
        <time>2020-10-14T13:14:49Z</time>
      </trkpt>
      <trkpt lat="48.26844" lon="3.21726">
        <ele>102</ele>
        <time>2020-10-14T13:14:49Z</time>
      </trkpt>
      <trkpt lat="48.26779" lon="3.21624">
        <ele>102.8</ele>
        <time>2020-10-14T13:14:49Z</time>
      </trkpt>
      <trkpt lat="48.26749" lon="3.21569">
        <ele>103.6</ele>
        <time>2020-10-14T13:14:49Z</time>
      </trkpt>
      <trkpt lat="48.26761" lon="3.21436">
        <ele>104.1</ele>
        <time>2020-10-14T13:14:49Z</time>
      </trkpt>
      <trkpt lat="48.26798" lon="3.21413">
        <ele>101.7</ele>
        <time>2020-10-14T13:14:49Z</time>
      </trkpt>
      <trkpt lat="48.26801" lon="3.21312">
        <ele>101.5</ele>
        <time>2020-10-14T13:14:49Z</time>
      </trkpt>
      <trkpt lat="48.27122" lon="3.21004">
        <ele>89.9</ele>
        <time>2020-10-14T13:14:49Z</time>
      </trkpt>
      <trkpt lat="48.27122" lon="3.21004">
        <ele>89.9</ele>
        <time>2020-10-14T13:14:49Z</time>
      </trkpt>
      <trkpt lat="48.27183" lon="3.20903">
        <ele>104.3</ele>
        <time>2020-10-14T13:14:49Z</time>
      </trkpt>
      <trkpt lat="48.27263" lon="3.20852">
        <ele>103.6</ele>
        <time>2020-10-14T13:14:49Z</time>
      </trkpt>
      <trkpt lat="48.2733" lon="3.20806">
        <ele>103.1</ele>
        <time>2020-10-14T13:14:49Z</time>
      </trkpt>
      <trkpt lat="48.27388" lon="3.2071">
        <ele>103.5</ele>
        <time>2020-10-14T13:14:49Z</time>
      </trkpt>
      <trkpt lat="48.27636" lon="3.20439">
        <ele>129.1</ele>
        <time>2020-10-14T13:14:49Z</time>
      </trkpt>
      <trkpt lat="48.27529" lon="3.2025">
        <ele>143</ele>
        <time>2020-10-14T13:14:49Z</time>
      </trkpt>
      <trkpt lat="48.27345" lon="3.20213">
        <ele>147.5</ele>
        <time>2020-10-14T13:14:49Z</time>
      </trkpt>
      <trkpt lat="48.27278" lon="3.20204">
        <ele>151.9</ele>
        <time>2020-10-14T13:14:49Z</time>
      </trkpt>
      <trkpt lat="48.27143" lon="3.20089">
        <ele>143.4</ele>
        <time>2020-10-14T13:14:49Z</time>
      </trkpt>
      <trkpt lat="48.27049" lon="3.19965">
        <ele>134.6</ele>
        <time>2020-10-14T13:14:49Z</time>
      </trkpt>
      <trkpt lat="48.27049" lon="3.19965">
        <ele>134.6</ele>
        <time>2020-10-14T13:14:49Z</time>
      </trkpt>
      <trkpt lat="48.26694" lon="3.20429">
        <ele>90.1</ele>
        <time>2020-10-14T13:14:49Z</time>
      </trkpt>
      <trkpt lat="48.26743" lon="3.20535">
        <ele>87.5</ele>
        <time>2020-10-14T13:14:49Z</time>
      </trkpt>
      <trkpt lat="48.26492" lon="3.20788">
        <ele>99.6</ele>
        <time>2020-10-14T13:14:49Z</time>
      </trkpt>
      <trkpt lat="48.26317" lon="3.20797">
        <ele>106.4</ele>
        <time>2020-10-14T13:14:49Z</time>
      </trkpt>
      <trkpt lat="48.26146" lon="3.21009">
        <ele>125.8</ele>
        <time>2020-10-14T13:14:49Z</time>
      </trkpt>
      <trkpt lat="48.25972" lon="3.21156">
        <ele>148.1</ele>
        <time>2020-10-14T13:14:49Z</time>
      </trkpt>
      <trkpt lat="48.25907" lon="3.21031">
        <ele>156.5</ele>
        <time>2020-10-14T13:14:49Z</time>
      </trkpt>
      <trkpt lat="48.25788" lon="3.20898">
        <ele>163</ele>
        <time>2020-10-14T13:14:49Z</time>
      </trkpt>
      <trkpt lat="48.25739" lon="3.20834">
        <ele>163.2</ele>
        <time>2020-10-14T13:14:49Z</time>
      </trkpt>
      <trkpt lat="48.25598" lon="3.21013">
        <ele>135.6</ele>
        <time>2020-10-14T13:14:49Z</time>
      </trkpt>
      <trkpt lat="48.25555" lon="3.20976">
        <ele>138.6</ele>
        <time>2020-10-14T13:14:49Z</time>
      </trkpt>
      <trkpt lat="48.25488" lon="3.21229">
        <ele>118.8</ele>
        <time>2020-10-14T13:14:49Z</time>
      </trkpt>
      <trkpt lat="48.25442" lon="3.21293">
        <ele>116.5</ele>
        <time>2020-10-14T13:14:49Z</time>
      </trkpt>
      <trkpt lat="48.25436" lon="3.21344">
        <ele>114.5</ele>
        <time>2020-10-14T13:14:49Z</time>
      </trkpt>
      <trkpt lat="48.25439" lon="3.21395">
        <ele>112.6</ele>
        <time>2020-10-14T13:14:49Z</time>
      </trkpt>
      <trkpt lat="48.25399" lon="3.21532">
        <ele>105.1</ele>
        <time>2020-10-14T13:14:49Z</time>
      </trkpt>
      <trkpt lat="48.25531" lon="3.21721">
        <ele>98.7</ele>
        <time>2020-10-14T13:14:49Z</time>
      </trkpt>
      <trkpt lat="48.25304" lon="3.21937">
        <ele>141.9</ele>
        <time>2020-10-14T13:14:49Z</time>
      </trkpt>
      <trkpt lat="48.25405" lon="3.22112">
        <ele>135.6</ele>
        <time>2020-10-14T13:14:49Z</time>
      </trkpt>
      <trkpt lat="48.25298" lon="3.2225">
        <ele>130.5</ele>
        <time>2020-10-14T13:14:49Z</time>
      </trkpt>
      <trkpt lat="48.25271" lon="3.22181">
        <ele>135.5</ele>
        <time>2020-10-14T13:14:49Z</time>
      </trkpt>
      <trkpt lat="48.25231" lon="3.2225">
        <ele>122.3</ele>
        <time>2020-10-14T13:14:49Z</time>
      </trkpt>
      <trkpt lat="48.25017" lon="3.22121">
        <ele>112.4</ele>
        <time>2020-10-14T13:14:49Z</time>
      </trkpt>
      <trkpt lat="48.24943" lon="3.22047">
        <ele>107.5</ele>
        <time>2020-10-14T13:14:49Z</time>
      </trkpt>
      <trkpt lat="48.24741" lon="3.22213">
        <ele>86.3</ele>
        <time>2020-10-14T13:14:49Z</time>
      </trkpt>
      <trkpt lat="48.24698" lon="3.21955">
        <ele>89</ele>
        <time>2020-10-14T13:14:49Z</time>
      </trkpt>
      <trkpt lat="48.24652" lon="3.219">
        <ele>90.2</ele>
        <time>2020-10-14T13:14:49Z</time>
      </trkpt>
      <trkpt lat="48.2446" lon="3.21955">
        <ele>98</ele>
        <time>2020-10-14T13:14:49Z</time>
      </trkpt>
      <trkpt lat="48.24267" lon="3.21983">
        <ele>108.2</ele>
        <time>2020-10-14T13:14:49Z</time>
      </trkpt>
      <trkpt lat="48.24193" lon="3.22038">
        <ele>114.8</ele>
        <time>2020-10-14T13:14:49Z</time>
      </trkpt>
      <trkpt lat="48.24141" lon="3.2213">
        <ele>122.4</ele>
        <time>2020-10-14T13:14:49Z</time>
      </trkpt>
      <trkpt lat="48.24037" lon="3.2224">
        <ele>133.8</ele>
        <time>2020-10-14T13:14:49Z</time>
      </trkpt>
      <trkpt lat="48.23985" lon="3.22323">
        <ele>143.5</ele>
        <time>2020-10-14T13:14:49Z</time>
      </trkpt>
      <trkpt lat="48.24092" lon="3.2242">
        <ele>139.8</ele>
        <time>2020-10-14T13:14:49Z</time>
      </trkpt>
      <trkpt lat="48.24163" lon="3.22525">
        <ele>135</ele>
        <time>2020-10-14T13:14:49Z</time>
      </trkpt>
      <trkpt lat="48.24261" lon="3.22631">
        <ele>126.8</ele>
        <time>2020-10-14T13:14:49Z</time>
      </trkpt>
      <trkpt lat="48.24356" lon="3.22796">
        <ele>114.5</ele>
        <time>2020-10-14T13:14:49Z</time>
      </trkpt>
      <trkpt lat="48.2475" lon="3.23316">
        <ele>78.1</ele>
        <time>2020-10-14T13:14:49Z</time>
      </trkpt>
      <trkpt lat="48.24802" lon="3.23343">
        <ele>79.4</ele>
        <time>2020-10-14T13:14:49Z</time>
      </trkpt>
      <trkpt lat="48.24842" lon="3.23385">
        <ele>77.4</ele>
        <time>2020-10-14T13:14:49Z</time>
      </trkpt>
      <trkpt lat="48.24861" lon="3.23514">
        <ele>83.6</ele>
        <time>2020-10-14T13:14:49Z</time>
      </trkpt>
      <trkpt lat="48.24855" lon="3.23587">
        <ele>86</ele>
        <time>2020-10-14T13:14:49Z</time>
      </trkpt>
      <trkpt lat="48.24885" lon="3.2367">
        <ele>84</ele>
        <time>2020-10-14T13:14:49Z</time>
      </trkpt>
      <trkpt lat="48.24903" lon="3.23798">
        <ele>85.7</ele>
        <time>2020-10-14T13:14:49Z</time>
      </trkpt>
    </trkseg>
  </trk>
</gpx>